TimeCDT,TemperatureF,Dew PointF,Humidity,Sea Level PressureIn,VisibilityMPH,Wind Direction,Wind SpeedMPH,Gust SpeedMPH,PrecipitationIn,Events,Conditions,WindDirDegrees,DateUTC
12:55 AM,64.6,61.0,88,30.18,10.0,ENE,4.6,-,N/A,,Clear,70,2012-10-14 05:55:00
1:55 AM,66.9,63.1,88,30.17,10.0,East,6.9,-,N/A,,Clear,100,2012-10-14 06:55:00
2:55 AM,64.9,62.6,92,30.16,10.0,East,5.8,-,N/A,,Clear,90,2012-10-14 07:55:00
3:55 AM,65.3,63.1,93,30.14,10.0,East,5.8,-,N/A,,Clear,90,2012-10-14 08:55:00
4:55 AM,64.8,63.0,94,30.15,10.0,East,4.6,-,N/A,,Clear,80,2012-10-14 09:55:00
5:55 AM,63.7,62.6,96,30.14,10.0,East,4.6,-,N/A,,Scattered Clouds,80,2012-10-14 10:55:00
6:55 AM,63.9,62.8,96,30.14,10.0,East,6.9,-,N/A,,Partly Cloudy,90,2012-10-14 11:55:00
7:55 AM,66.2,63.5,91,30.15,10.0,East,6.9,-,N/A,,Clear,100,2012-10-14 12:55:00
8:55 AM,70.9,65.1,82,30.16,10.0,ESE,9.2,-,N/A,,Clear,110,2012-10-14 13:55:00
9:55 AM,74.5,66.6,76,30.18,10.0,ESE,4.6,-,N/A,,Clear,120,2012-10-14 14:55:00
10:55 AM,78.6,67.3,68,30.18,10.0,SSE,5.8,-,N/A,,Scattered Clouds,160,2012-10-14 15:55:00
11:55 AM,79.7,66.0,63,30.17,10.0,SSW,6.9,-,N/A,,Partly Cloudy,210,2012-10-14 16:55:00
12:55 PM,80.4,65.7,61,30.14,10.0,NW,4.6,-,N/A,,Mostly Cloudy,310,2012-10-14 17:55:00
1:55 PM,80.6,64.2,57,30.11,10.0,Calm,Calm,-,N/A,,Partly Cloudy,0,2012-10-14 18:55:00
2:55 PM,82.0,63.3,53,30.08,10.0,SSW,3.5,-,N/A,,Partly Cloudy,210,2012-10-14 19:55:00
3:55 PM,81.7,62.2,52,30.06,10.0,Calm,Calm,-,N/A,,Clear,0,2012-10-14 20:55:00
4:55 PM,81.3,65.1,58,30.05,10.0,East,3.5,-,N/A,,Clear,90,2012-10-14 21:55:00
5:55 PM,77.7,66.6,68,30.03,10.0,ESE,3.5,-,N/A,,Clear,110,2012-10-14 22:55:00
6:55 PM,73.4,66.4,79,30.02,10.0,SE,3.5,-,N/A,,Clear,130,2012-10-14 23:55:00
7:55 PM,72.3,65.3,78,30.01,10.0,Calm,Calm,-,N/A,,Clear,0,2012-10-15 00:55:00
8:55 PM,69.3,65.8,89,30.03,10.0,WNW,3.5,-,N/A,,Clear,290,2012-10-15 01:55:00
9:55 PM,67.6,64.6,90,30.03,10.0,Calm,Calm,-,N/A,,Mostly Cloudy,0,2012-10-15 02:55:00
10:55 PM,67.3,63.9,89,30.03,10.0,Calm,Calm,-,N/A,,Partly Cloudy,0,2012-10-15 03:55:00
11:55 PM,67.3,64.8,92,30.01,10.0,WSW,3.5,-,N/A,,Clear,240,2012-10-15 04:55:00